Location: Navarre
(52.9016°N, 113.4144°W)
Time: 12:55:54
(UTC+00:00)

Envisat - Pass Details

Date: 02 December 2021
Orbit: 764 x 766 km, 98.2° (Epoch: 28 January)

Event Time Altitude Azimuth Distance (km) Brightness Sun altitude
Rises 01:24:22 0° 226° (SW) 3,226 7.3 -17.6°
Reaches altitude 10° 01:28:32 10° 259° (W) 2,308 6.8 -18.2°
Maximum altitude 01:30:08 11° 278° (W) 2,216 6.4 -18.4°
Drops below altitude 10° 01:31:43 10° 296° (WNW) 2,313 6.2 -18.6°
Sets 01:35:56 0° 330° (NNW) 3,247 6.5 -19.3°
